Terug naar catalogus

STARLINK-31097

ActiefCommunicatieVLEO
NORAD 58718·PAYLOAD·🇺🇸 United States

Gelanceerd Jan 3, 2024 vanaf Vandenberg Space Force Base

Loading…

Volgende Passages (komende 24 uur)

TLE

VersSource: CelesTrak SupGP

Epoch: Sep 15, 2026, 03:22 UTC

1 58718C 24002P   26258.14076389 -.00031847  00000+0 -94112-3 0  2580
2 58718  53.1584  68.5793 0001105  86.3462 161.3900 15.34400452    10

Volg STARLINK-31097 in realtime met AllMySat

Download on the App Store